2023/05/18 00:00:00, 0.0,16.8
2023/05/18 00:10:00, 0.0,16.8
2023/05/18 00:20:00, 0.0,16.6
2023/05/18 00:30:00, 0.6,16.4
2023/05/18 00:40:00, 0.4,16.5
2023/05/18 00:50:00, 0.3,16.3
2023/05/18 01:00:00, 0.5,16.2
2023/05/18 01:10:00, 0.5,16.2
2023/05/18 01:20:00, 0.4,16.0
2023/05/18 01:30:00, 0.4,15.9
2023/05/18 01:40:00, 0.4,15.6
2023/05/18 01:50:00, 1.1,15.7
2023/05/18 02:00:00, 0.0,15.5
2023/05/18 02:10:00, 0.0,15.4
2023/05/18 02:20:00,---,15.7
2023/05/18 02:30:00,---,15.7
2023/05/18 02:40:00,---,15.8
2023/05/18 02:50:00,---,15.9
2023/05/18 03:00:00,---,15.7
2023/05/18 03:10:00,---,15.3
2023/05/18 03:20:00, 0.0,15.2
2023/05/18 03:30:00, 0.0,15.4
2023/05/18 03:40:00,---,15.7
2023/05/18 03:50:00, 1.2,15.4
2023/05/18 04:00:00,---,14.8
2023/05/18 04:10:00, 0.0,14.5
2023/05/18 04:20:00, 0.0,13.7
2023/05/18 04:30:00, 0.0,13.8
2023/05/18 04:40:00, 4.6,14.1
2023/05/18 04:50:00,---,13.4
2023/05/18 05:00:00, 0.0,13.9
2023/05/18 05:10:00, 0.0,14.0
2023/05/18 05:20:00, 5.0,15.4
2023/05/18 05:30:00, 0.6,16.4
2023/05/18 05:40:00, 0.7,16.3
2023/05/18 05:50:00, 0.8,15.5
2023/05/18 06:00:00,---,15.6
2023/05/18 06:10:00, 0.0,16.4
2023/05/18 06:20:00,---,16.7
2023/05/18 06:30:00, 0.0,17.3
2023/05/18 06:40:00, 0.0,17.3
2023/05/18 06:50:00, 0.0,17.1
2023/05/18 07:00:00, 0.0,18.7
2023/05/18 07:10:00, 0.0,20.3
2023/05/18 07:20:00, 0.0,19.8
2023/05/18 07:30:00, 0.0,19.8
2023/05/18 07:40:00, 0.0,20.8
2023/05/18 07:50:00, 0.0,21.6
2023/05/18 08:00:00, 0.0,21.5
2023/05/18 08:10:00,---,23.0
2023/05/18 08:20:00,29.5,22.4
2023/05/18 08:30:00,29.5,22.5
2023/05/18 08:40:00, 0.0,22.0
2023/05/18 08:50:00, 0.0,22.8
2023/05/18 09:00:00, 0.0,23.1
2023/05/18 09:10:00, 0.0,23.8
2023/05/18 09:20:00, 0.0,23.7
2023/05/18 09:30:00,33.0,23.7
2023/05/18 09:40:00,90.2,23.8
2023/05/18 09:50:00,---,24.1
2023/05/18 10:00:00,---,24.3
2023/05/18 10:10:00,130.5,24.2
2023/05/18 10:20:00,126.1,24.5
2023/05/18 10:30:00,106.3,25.1
2023/05/18 10:40:00,---,25.4
2023/05/18 10:50:00,---,25.4
2023/05/18 11:00:00,46.3,24.9
2023/05/18 11:10:00,13.2,25.2
2023/05/18 11:20:00,61.2,25.4
2023/05/18 11:30:00,59.3,25.4
2023/05/18 11:40:00,---,25.3
2023/05/18 11:50:00,134.4,25.4
2023/05/18 12:00:00,134.4,26.6
2023/05/18 12:10:00,134.4,26.4
2023/05/18 12:20:00,133.8,26.9
2023/05/18 12:30:00,115.1,27.3
2023/05/18 12:40:00,---,26.9
2023/05/18 12:50:00,44.1,26.1
2023/05/18 13:00:00,33.4,25.2
2023/05/18 13:10:00,33.4,25.3
2023/05/18 13:20:00,33.4,24.8
2023/05/18 13:30:00,33.4,24.5
2023/05/18 13:40:00,33.4,24.0
2023/05/18 13:50:00,60.0,24.0
2023/05/18 14:00:00,67.9,23.4
2023/05/18 14:10:00,75.8,23.1
2023/05/18 14:20:00,161.6,23.5
2023/05/18 14:30:00,123.0,22.4
2023/05/18 14:40:00,126.8,22.3
2023/05/18 14:50:00,162.0,22.3
2023/05/18 15:00:00,162.1,21.4
2023/05/18 15:10:00,162.1,21.1
2023/05/18 15:20:00,162.1,21.1
2023/05/18 15:30:00,119.5,21.3
2023/05/18 15:40:00,68.6,21.2
2023/05/18 15:50:00, 0.0,21.0
2023/05/18 16:00:00, 0.0,21.2
2023/05/18 16:10:00, 0.0,20.8
2023/05/18 16:20:00, 0.0,20.7
2023/05/18 16:30:00,---,20.5
2023/05/18 16:40:00,---,20.7
2023/05/18 16:50:00,---,20.4
2023/05/18 17:00:00,---,20.4
2023/05/18 17:10:00,---,20.0
2023/05/18 17:20:00,132.8,20.0
2023/05/18 17:30:00,---,19.5
2023/05/18 17:40:00,---,18.9
2023/05/18 17:50:00, 0.0,18.8
2023/05/18 18:00:00,---,18.9
2023/05/18 18:10:00, 0.3,18.7
2023/05/18 18:20:00,---,18.5
2023/05/18 18:30:00, 6.4,18.1
2023/05/18 18:40:00, 0.1,18.0
2023/05/18 18:50:00, 0.0,18.0
2023/05/18 19:00:00, 0.1,17.7
2023/05/18 19:10:00, 0.4,17.1
2023/05/18 19:20:00, 1.3,16.6
2023/05/18 19:30:00,---,16.3
2023/05/18 19:40:00, 1.6,16.4
2023/05/18 19:50:00, 0.0,16.1
2023/05/18 20:00:00, 0.0,16.1
2023/05/18 20:10:00,---,15.8
2023/05/18 20:20:00, 0.0,15.5
2023/05/18 20:30:00, 0.0,15.6
2023/05/18 20:40:00, 0.0,15.8
2023/05/18 20:50:00, 0.0,15.7
2023/05/18 21:00:00,---,15.9
2023/05/18 21:10:00, 0.0,15.6
2023/05/18 21:20:00, 0.0,15.6
2023/05/18 21:30:00, 0.0,15.8
2023/05/18 21:40:00, 0.0,15.9
2023/05/18 21:50:00, 0.0,15.6
2023/05/18 22:00:00,---,15.9
2023/05/18 22:10:00, 1.1,15.9
2023/05/18 22:20:00, 0.0,15.8
2023/05/18 22:30:00, 0.0,16.1
2023/05/18 22:40:00,---,16.0
2023/05/18 22:50:00, 2.3,15.9
2023/05/18 23:00:00, 0.0,15.5
2023/05/18 23:10:00,15.7,15.2
2023/05/18 23:20:00, 0.0,14.9
2023/05/18 23:30:00,---,14.7
2023/05/18 23:40:00, 0.0,14.4
2023/05/18 23:50:00, 0.0,14.2
